Location: Gleizolles
(44.4833°N, 6.7667°E)
Time: 11:03:00
(UTC+00:00)

Envisat - Pass Details

Date: 10 December 2021
Orbit: 764 x 766 km, 98.2° (Epoch: 28 January)

Event Time Altitude Azimuth Distance (km) Brightness Sun altitude
Rises 16:24:35 0° 191° (SSW) 3,218 6.8 -5.7°
Reaches altitude 10° 16:27:06 10° 201° (SSW) 2,297 6.3 -6.1°
Maximum altitude 16:31:36 32° 264° (W) 1,298 5.1 -6.8°
Drops below altitude 10° 16:36:09 10° 328° (NNW) 2,313 5.6 -7.6°
Sets 16:38:42 0° 338° (NNW) 3,244 6.2 -8.0°
